Flag for Germany Weather past 2 weeks in Weiden in der Oberpfalz, Bavaria, Germany

Now
61 °F

Passing clouds.


Feels Like: 61 °F
Forecast: 39 / 71 °F
Wind: 3 mph from Northeast

Location: Weiden

Current Time: Aug 27, 2014 at 2:54:44 PM

Latest Report: Aug 27, 2014 at 2:00 PM


Visibility: 19 mi

Pressure: 29.98 "Hg

Humidity: 59%

Dew point: 47 °F

Location of Weiden in der OberpfalzLocation

Historic Weather in Weiden in der Oberpfalz — Graph

°F

Weiden in der Oberpfalz temperature yesterday

Maximum temperature yesterday: 62 °F (at 6:00 PM)
Minimum temperature yesterday: 52 °F (at 5:00 AM)
Average temperature yesterday: 56 °F

Past Weeks' High & Low Weather Summary

 TemperatureHumidityPressure
High70 °F (Aug 12, 4:00 PM)98% (Aug 25, 7:00 AM)30.15 "Hg (Aug 25, 7:00 AM)
Low40 °F (Aug 25, 7:00 AM)40% (Aug 22, 7:00 PM)29.67 "Hg (Aug 13, 6:00 PM)
Average57 °F75%29.94 "Hg
* Reported Aug 12 2:00 PM — Aug 27 2:00 PM, Weiden in der Oberpfalz, Weather by CustomWeather, © 2014

Note: Actual official high and low records may vary slightly from our data, if they occured in-between our weather recording intervals... More about our weather records

Advertising

Weiden in der Oberpfalz weather history for previous 24 hours

 ConditionsComfort  
Time TempWeatherWind HumidityBarometerVisibility
2:00 PM
Aug 27
61 °FPassing clouds.3 mph59%29.98 "Hg19 mi
1:00 PM61 °FSunny.5 mph57%29.98 "Hg18 mi
12:00 PM58 °FPartly sunny.3 mph74%29.98 "Hg14 mi
11:00 AM56 °FOvercast.3 mph79%29.96 "Hg14 mi
10:00 AM55 °FLow clouds.5 mph87%29.94 "Hg11 mi
9:00 AM53 °FLow clouds.2 mph92%29.92 "Hg7 mi
8:00 AM52 °FLow clouds.2 mph96%29.89 "Hg3 mi
7:00 AM52 °FLight rain. Low clouds.1 mph97%29.86 "Hg2 mi
6:00 AM52 °FLight rain. Overcast.2 mph96%29.82 "Hg3 mi
5:00 AM53 °FLight rain. Overcast.3 mph95%29.79 "Hg17 mi
4:00 AM53 °FRain. Low clouds.5 mph98%29.78 "Hg1 mi
3:00 AM54 °FLight rain. Low clouds.2 mph96%29.75 "Hg3 mi
2:00 AM54 °FLight rain. Low clouds.2 mph98%29.77 "Hg2 mi
1:00 AM55 °FLight freezing rain. Low clouds.1 mph97%29.76 "Hg2 mi
12:00 AM55 °FLight freezing rain. Low clouds.1 mph98%29.76 "Hg2 mi
11:00 PM
Aug 26
55 °FLight rain. Overcast.1 mph98%29.75 "Hg2 mi
10:00 PM56 °FRain. Fog.1 mph96%29.74 "Hg2 mi
9:00 PM56 °FLight rain. Overcast.1 mph93%29.75 "Hg8 mi
8:00 PM57 °FLight rain. Overcast.1 mph92%29.74 "Hg9 mi
7:00 PM60 °FOvercast.2 mph78%29.72 "Hg34 mi
6:00 PM62 °FOvercast.2 mph78%29.72 "Hg34 mi
5:00 PM61 °FOvercast.3 mph81%29.73 "Hg34 mi
4:00 PM59 °FDrizzle. Overcast.5 mph86%29.74 "Hg16 mi
3:00 PM59 °FOvercast.2 mph93%29.72 "Hg28 mi
2:00 PM58 °FDrizzle. Low clouds.3 mph92%29.71 "Hg5 mi
Weather by CustomWeather, © 2014

See weather overviewHow to use our weather pages